Location: Huisseau
(47.5933°N, 1.4533°E)
Time: 19:01:04
(UTC+00:00)

CENTAUR R/B - Pass Details

Date: 26 November 2025
Orbit: 633 x 1547 km, 63.4° (Epoch: 06 December)

Event Time Altitude Azimuth Distance (km) Brightness Sun altitude
Exits shadow 02:10:30 19° 119° (ESE) 3,014 5.2 -49.9°
Drops below altitude 10° 02:12:44 10° 123° (ESE) 3,700 5.7 -49.6°
Sets 02:15:55 0° 126° (SE) 4,703 6.3 -49.1°
